When you browse on this site, cookies collect data to enhance your experience and personalize the content and advertising you see.
Visit our Privacy Policy to learn more. By continuing to use the site, you agree to this use of cookies and data.
  • In Switzerland
  • List of Countries
  • For 7 days
  • Water Temperature
  • Weather Map
  • Weather Widgets
  • user-avatar
    Login

    Hourly Weather Matlock

    Today, 8 December, Sunday

    Time Temperature Precipitation Wind Pressure Humidity
    00:00 +7°C° 0 mm 11 mps 731 mmHg 84%
    01:00 +8°C° 0.5 mm 11 mps 730 mmHg 85%
    02:00 +9°C° 0.5 mm 10 mps 729 mmHg 87%
    03:00 +11°C° 0.5 mm 10 mps 728 mmHg 89%
    04:00 +8°C° 0 mm 10 mps 729 mmHg 85%
    05:00 +7°C° 0 mm 9 mps 729 mmHg 81%
    06:00 +5°C° 0 mm 7 mps 729 mmHg 81%
    07:00 +5°C° 0 mm 7 mps 729 mmHg 80%
    08:00 +4°C° 0 mm 8 mps 729 mmHg 79%
    09:00 +4°C° 0 mm 8 mps 730 mmHg 77%
    10:00 +4°C° 0 mm 8 mps 730 mmHg 74%
    11:00 +5°C° 0 mm 9 mps 729 mmHg 71%
    12:00 +5°C° 0 mm 10 mps 729 mmHg 68%
    13:00 +5°C° 0.1 mm 9 mps 729 mmHg 68%
    14:00 +3°C° 0.1 mm 9 mps 728 mmHg 68%
    15:00 +3°C° 0.1 mm 9 mps 727 mmHg 69%
    16:00 +3°C° 0 mm 9 mps 727 mmHg 71%
    17:00 +2°C° 0 mm 8 mps 727 mmHg 72%
    18:00 +2°C° 0 mm 8 mps 726 mmHg 74%
    19:00 +2°C° 0.1 mm 8 mps 726 mmHg 78%
    20:00 +2°C° 0.1 mm 9 mps 725 mmHg 82%
    21:00 +2°C° 0.1 mm 9 mps 724 mmHg 86%
    22:00 +2°C° 0.5 mm 9 mps 724 mmHg 86%
    23:00 +2°C° 0.5 mm 9 mps 723 mmHg 85%

    Tomorrow, 9 December, Monday

    Time Temperature Precipitation Wind Pressure Humidity
    00:00 +2°C° 0.5 mm 8 mps 723 mmHg 85%
    01:00 +2°C° 1 mm 10 mps 723 mmHg 82%
    02:00 +3°C° 1 mm 11 mps 724 mmHg 79%
    03:00 +3°C° 1 mm 12 mps 724 mmHg 76%
    04:00 +3°C° 0.5 mm 12 mps 726 mmHg 76%
    05:00 +3°C° 0.5 mm 11 mps 728 mmHg 75%
    06:00 +3°C° 0.5 mm 11 mps 730 mmHg 75%
    07:00 +3°C° 0 mm 10 mps 732 mmHg 76%
    08:00 +4°C° 0 mm 8 mps 735 mmHg 76%
    09:00 +4°C° 0 mm 7 mps 737 mmHg 76%
    10:00 +4°C° 0 mm 7 mps 739 mmHg 72%
    11:00 +4°C° 0 mm 7 mps 741 mmHg 68%
    12:00 +4°C° 0 mm 7 mps 743 mmHg 65%
    13:00 +3°C° 0 mm 6 mps 744 mmHg 65%
    14:00 +3°C° 0 mm 5 mps 745 mmHg 66%
    15:00 +3°C° 0 mm 4 mps 746 mmHg 66%
    16:00 +3°C° 0 mm 4 mps 747 mmHg 69%
    17:00 +2°C° 0 mm 3 mps 748 mmHg 71%
    18:00 +2°C° 0 mm 2 mps 749 mmHg 74%
    19:00 +2°C° 0 mm 2 mps 749 mmHg 78%
    20:00 +2°C° 0 mm 2 mps 749 mmHg 81%
    21:00 +2°C° 0 mm 2 mps 750 mmHg 85%
    22:00 +2°C° 0 mm 2 mps 750 mmHg 86%
    23:00 +2°C° 0 mm 2 mps 749 mmHg 86%

    Day after tomorrow, 10 December, Tuesday

    Time Temperature Precipitation Wind Pressure Humidity
    00:00 +1°C° 0 mm 3 mps 749 mmHg 87%
    01:00 +1°C° 0 mm 3 mps 748 mmHg 86%
    02:00 0°C° 0 mm 4 mps 748 mmHg 86%
    03:00 0°C° 0 mm 5 mps 747 mmHg 85%
    04:00 +1°C° 0 mm 6 mps 746 mmHg 85%
    05:00 +1°C° 0 mm 6 mps 745 mmHg 86%
    06:00 +2°C° 0 mm 7 mps 744 mmHg 86%
    07:00 +1°C° 0.7 mm 8 mps 743 mmHg 87%
    08:00 +2°C° 0.7 mm 9 mps 742 mmHg 89%
    09:00 +3°C° 0.7 mm 10 mps 741 mmHg 90%
    10:00 +4°C° 0.5 mm 11 mps 740 mmHg 89%
    11:00 +4°C° 0.5 mm 11 mps 738 mmHg 88%
    12:00 +5°C° 0.5 mm 12 mps 737 mmHg 88%
    13:00 +7°C° 0.3 mm 12 mps 735 mmHg 88%
    14:00 +8°C° 0.3 mm 12 mps 734 mmHg 88%
    15:00 +8°C° 0.3 mm 12 mps 732 mmHg 89%
    16:00 +7°C° 2.3 mm 11 mps 732 mmHg 89%
    17:00 +6°C° 2.3 mm 11 mps 732 mmHg 90%
    18:00 +4°C° 2.3 mm 11 mps 732 mmHg 90%
    19:00 +5°C° 1 mm 9 mps 733 mmHg 87%
    20:00 +4°C° 1 mm 8 mps 734 mmHg 83%
    21:00 +3°C° 1 mm 7 mps 735 mmHg 79%
    22:00 +3°C° 0 mm 7 mps 735 mmHg 79%
    23:00 +2°C° 0 mm 6 mps 736 mmHg 79%

    11 December, Wednesday

    Time Temperature Precipitation Wind Pressure Humidity
    00:00 +2°C° 0 mm 6 mps 737 mmHg 79%
    01:00 +2°C° 0 mm 6 mps 737 mmHg 79%
    02:00 +2°C° 0 mm 5 mps 737 mmHg 80%
    03:00 +1°C° 0 mm 5 mps 737 mmHg 80%
    04:00 +1°C° 0 mm 5 mps 737 mmHg 81%
    05:00 +1°C° 0 mm 4 mps 737 mmHg 82%
    06:00 +1°C° 0 mm 4 mps 736 mmHg 84%
    07:00 +1°C° 0 mm 5 mps 736 mmHg 84%
    08:00 +1°C° 0 mm 5 mps 736 mmHg 85%
    09:00 +1°C° 0 mm 6 mps 735 mmHg 86%
    10:00 +2°C° 0.3 mm 6 mps 735 mmHg 84%
    11:00 +2°C° 0.3 mm 6 mps 734 mmHg 83%
    12:00 +3°C° 0.3 mm 5 mps 734 mmHg 81%
    13:00 +2°C° 0.1 mm 5 mps 733 mmHg 82%
    14:00 +3°C° 0.1 mm 4 mps 732 mmHg 84%
    15:00 +3°C° 0.1 mm 3 mps 732 mmHg 85%
    16:00 +3°C° 0.2 mm 3 mps 732 mmHg 86%
    17:00 +2°C° 0.2 mm 3 mps 732 mmHg 87%
    18:00 +2°C° 0.2 mm 3 mps 733 mmHg 88%
    19:00 0°C° 0 mm 4 mps 733 mmHg 87%
    20:00 0°C° 0 mm 4 mps 734 mmHg 85%
    21:00 0°C° 0 mm 4 mps 734 mmHg 84%
    22:00 0°C° 0 mm 5 mps 734 mmHg 83%
    23:00 0°C° 0 mm 5 mps 735 mmHg 82%

    12 December, Thursday

    Time Temperature Precipitation Wind Pressure Humidity
    00:00 0°C° 0 mm 5 mps 735 mmHg 81%
    01:00 0°C° 0 mm 5 mps 735 mmHg 81%
    02:00 0°C° 0 mm 5 mps 734 mmHg 81%
    03:00 -2°C° 0 mm 6 mps 734 mmHg 81%
    04:00 0°C° 0 mm 5 mps 734 mmHg 82%
    05:00 0°C° 0 mm 5 mps 733 mmHg 82%
    06:00 0°C° 0 mm 5 mps 733 mmHg 83%
    07:00 -1°C° 0 mm 6 mps 732 mmHg 84%
    08:00 -1°C° 0 mm 6 mps 731 mmHg 84%
    09:00 +1°C° 0 mm 6 mps 730 mmHg 84%
    10:00 0°C° 0.1 mm 7 mps 728 mmHg 85%
    11:00 +1°C° 0.1 mm 8 mps 726 mmHg 86%
    12:00 +2°C° 0.1 mm 9 mps 724 mmHg 88%
    13:00 +2°C° 1.6 mm 9 mps 722 mmHg 89%
    14:00 +3°C° 1.6 mm 9 mps 720 mmHg 91%
    15:00 +3°C° 1.6 mm 10 mps 717 mmHg 92%
    16:00 +5°C° 0.8 mm 9 mps 716 mmHg 90%
    17:00 +5°C° 0.8 mm 8 mps 715 mmHg 88%
    18:00 +5°C° 0.8 mm 7 mps 714 mmHg 86%
    19:00 +4°C° 0.9 mm 8 mps 713 mmHg 84%
    20:00 +3°C° 0.9 mm 9 mps 713 mmHg 83%
    21:00 +2°C° 0.9 mm 10 mps 713 mmHg 81%
    22:00 +2°C° 0.4 mm 10 mps 713 mmHg 82%
    23:00 +1°C° 0.4 mm 11 mps 714 mmHg 83%

    13 December, Friday

    Time Temperature Precipitation Wind Pressure Humidity
    00:00 -1°C° 0.4 mm 11 mps 714 mmHg 84%
    01:00 -1°C° 0.3 mm 11 mps 714 mmHg 81%
    02:00 -1°C° 0.3 mm 11 mps 714 mmHg 78%
    03:00 -1°C° 0.3 mm 11 mps 715 mmHg 75%
    04:00 -1°C° 0 mm 11 mps 715 mmHg 76%
    05:00 -1°C° 0 mm 11 mps 715 mmHg 77%
    06:00 -1°C° 0 mm 11 mps 716 mmHg 78%
    07:00 -1°C° 0.1 mm 11 mps 716 mmHg 80%
    08:00 +1°C° 0.1 mm 11 mps 717 mmHg 82%
    09:00 +1°C° 0.1 mm 11 mps 718 mmHg 84%
    10:00 +1°C° 0.1 mm 11 mps 718 mmHg 83%
    11:00 +2°C° 0.1 mm 11 mps 719 mmHg 82%
    12:00 +2°C° 0.1 mm 11 mps 720 mmHg 80%
    13:00 +2°C° 0.1 mm 11 mps 721 mmHg 79%
    14:00 +1°C° 0.1 mm 11 mps 721 mmHg 78%
    15:00 +1°C° 0.1 mm 11 mps 722 mmHg 78%
    16:00 +1°C° 0 mm 10 mps 723 mmHg 76%
    17:00 +1°C° 0 mm 9 mps 723 mmHg 74%
    18:00 0°C° 0 mm 8 mps 724 mmHg 73%
    19:00 0°C° 0 mm 8 mps 724 mmHg 75%
    20:00 0°C° 0 mm 7 mps 724 mmHg 77%
    21:00 0°C° 0 mm 7 mps 724 mmHg 79%
    22:00 +1°C° 0 mm 6 mps 724 mmHg 81%
    23:00 +1°C° 0 mm 6 mps 724 mmHg 83%
    Show more